Location: Libas
(9.8833°N, 125.9833°E)
Time: 21:47:13
(UTC+00:00)

Cosmos 1634 Rocket - Pass Details

Date: 27 October 2020
Orbit: 960 x 992 km, 82.9° (Epoch: 25 November)

Event Time Altitude Azimuth Distance (km) Brightness Sun altitude
Exits shadow 19:14:12 58° 154° (SSE) 1,124 4.3 -32.6°
Drops below altitude 10° 19:19:09 10° 172° (S) 2,711 6.5 -31.4°
Sets 19:21:39 0° 174° (S) 3,654 7.2 -30.8°
